Central Park, NY

6:16 AM EDT on July 27, 2017 (GMT -0400)
Central Park

Weather History for KNYC - March, 2013

Change the Weather History Date:

Friday, March 15, 2013

  Actual Average Record
Temperature  
Mean Temperature 39 °F 42 °F  
Max Temperature 47 °F 49 °F 77 °F (1990)
Min Temperature 30 °F 35 °F 14 °F (1993)
Degree Days  
Heating Degree Days 26 23  
Month to date heating degree days 371 376  
Since 1 July heating degree days 3744 3898  
Cooling Degree Days 0 0  
Month to date cooling degree days 0 0  
Year to date cooling degree days 0 0  
Moisture  
Dew Point 17 °F    
Average Humidity 46    
Maximum Humidity 57    
Minimum Humidity 35    
Precipitation  
Precipitation 0.00 in 0.14 in 1.81 in (1912)
Month to date precipitation 1.52 1.95  
Year to date precipitation 8.53 8.69  
Snow  
Snow 0.00 in 0.10 in 6.50 in (1896)
Month to date snowfall 4.0 2.6  
Since 1 July snowfall 22.8 23.9  
Snow Depth 0.00 in    
Sea Level Pressure  
Sea Level Pressure 29.85 in    
Wind  
Wind Speed 8 mph (WNW)    
Max Wind Speed 16 mph    
Max Gust Speed 26 mph    
Visibility 10 miles    
Events      
T = Trace of Precipitation, MM = Missing Value Source: NWS Daily Summary

Daily Weather History Graph

Daily Weather History Graph

Search for Another Location

Airport or City:

Trip Planner

Search our weather history database for the weather conditions in past years. The results will help you decide how hot, cold, wet, or windy it might be!

Date:

Astronomy

Mar. 15, 2013 Rise Set
Actual Time 7:07 AM EDT 7:02 PM EDT
Civil Twilight 6:39 AM EDT 7:30 PM EDT
Nautical Twilight 6:08 AM EDT 8:02 PM EDT
Astronomical Twilight 5:35 AM EDT 8:34 PM EDT
Moon 8:54 AM EDT (3/15) 11:16 PM EDT (3/15)
Length of Visible Light 12h 50m
Length of Day
11h 55m
Waxing Crescent, 15% of the Moon is Illuminated
Mar 15
Waxing Crescent
Mar 19
First Quarter
Mar 27
Full
Apr 3
Last Quarter
Apr 10
New

Hourly Weather History & Observations

Time (EDT) Temp. Windchill Dew Point Humidity Pressure Visibility Wind Dir Wind Speed Gust Speed Precip Events Conditions
12:51 AM 33.1 °F 25.5 °F 9.0 °F 37% 29.95 in 10.0 mi WNW 9.2 mph 18.4 mph N/A   Clear
1:51 AM 32.0 °F 24.8 °F 10.0 °F 40% 29.96 in 10.0 mi NW 8.1 mph - N/A   Clear
2:51 AM 30.9 °F 25.2 °F 10.0 °F 42% 29.96 in 10.0 mi Variable 5.8 mph - N/A   Clear
3:51 AM 30.9 °F 26.2 °F 10.9 °F 43% 29.96 in 10.0 mi Variable 4.6 mph - N/A   Clear
4:51 AM 30.9 °F 23.5 °F 10.9 °F 43% 29.95 in 10.0 mi NW 8.1 mph - N/A   Clear
5:51 AM 30.0 °F 23.2 °F 10.9 °F 45% 29.95 in 10.0 mi Variable 6.9 mph 18.4 mph N/A   Clear
6:51 AM 30.0 °F 25.2 °F 12.9 °F 49% 29.96 in 10.0 mi Variable 4.6 mph - N/A   Clear
7:51 AM 30.0 °F 21.7 °F 12.0 °F 47% 29.97 in 10.0 mi West 9.2 mph - N/A   Clear
8:51 AM 30.9 °F - 10.0 °F 42% 29.96 in 10.0 mi North - - N/A   Clear
9:51 AM 33.1 °F 27.7 °F 12.9 °F 43% 29.95 in 10.0 mi Variable 5.8 mph - N/A   Partly Cloudy
10:51 AM 33.1 °F 26.1 °F 12.0 °F 42% 29.92 in 10.0 mi WSW 8.1 mph - N/A   Overcast
11:51 AM 37.0 °F 31.6 °F 14.0 °F 39% 29.89 in 10.0 mi Variable 6.9 mph - N/A   Clear
12:51 PM 39.9 °F 37.8 °F 17.1 °F 40% 29.85 in 10.0 mi Variable 3.5 mph - N/A   Overcast
1:51 PM 39.9 °F 32.9 °F 18.0 °F 41% 29.82 in 10.0 mi WSW 11.5 mph 20.7 mph N/A   Overcast
2:51 PM 41.0 °F 33.9 °F 19.0 °F 41% 29.79 in 10.0 mi West 12.7 mph 19.6 mph N/A   Overcast
3:51 PM 43.0 °F 36.4 °F 21.9 °F 43% 29.75 in 10.0 mi West 12.7 mph 19.6 mph N/A   Overcast
4:51 PM 44.1 °F 37.7 °F 21.9 °F 42% 29.73 in 10.0 mi WSW 12.7 mph 20.7 mph N/A   Overcast
5:51 PM 45.0 °F - 23.0 °F 42% 29.71 in 10.0 mi North - - N/A   Overcast
6:51 PM 46.0 °F 43.1 °F 24.1 °F 42% 29.72 in 10.0 mi Variable 5.8 mph - N/A   Overcast
7:51 PM 46.9 °F - 24.1 °F 41% 29.73 in 10.0 mi WNW 6.9 mph - N/A   Overcast
8:51 PM 46.9 °F - 28.0 °F 48% 29.74 in 10.0 mi WNW 9.2 mph 18.4 mph N/A   Overcast
9:51 PM 46.0 °F 43.1 °F 27.0 °F 47% 29.75 in 10.0 mi Variable 5.8 mph - N/A   Overcast
10:51 PM 43.0 °F 39.5 °F 28.0 °F 56% 29.77 in 10.0 mi WNW 5.8 mph - N/A   Overcast
11:51 PM 42.1 °F 37.1 °F 27.0 °F 55% 29.78 in 10.0 mi NW 8.1 mph 17.3 mph N/A   Mostly Cloudy